User: anonymous   Login
Location: Unspecified
(48.7670°N, 0.0000°E)
Time: 02:08:39
(UTC+00:00)
Language:

UWE-3 - Orbit

View from above orbital plane
View from above orbital plane
View from above satellite
View from above satellite

Ground track
Ground track

The orbit data is extracted from the following two-line orbital elements,

1 39446U 13066AG  19203.93463296 +.00000104 +00000-0 +20682-4 0  9996
2 39446 097.5812 207.4113 0068784 309.2120 050.2997 14.78399289303736
Epoch (UTC): 22 July 2019 22:25:52
Eccentricity: 0.0068784
inclination: 97.5812°
perigee height: 586 km
apogee height: 682 km
right ascension of ascending node: 207.4113°
argument of perigee: 309.2120°
revolutions per day: 14.78399289
mean anomaly at epoch: 50.2997°
orbit number at epoch: 30373

The dashed part of the orbit path shows where the satellite is in the earth's shadow,  

DLR